Location: Eboldshausen
(51.7766°N, 10.0050°E)
Time: 17:19:56
(UTC+00:00)

Cosmos 1725 Rocket - Pass Details

Date: 15 November 2025
Orbit: 961 x 989 km, 82.9° (Epoch: 10 December)

Event Time Altitude Azimuth Distance (km) Brightness Sun altitude
Rises 16:11:07 0° 179° (S) 3,667 7.3 -6.6°
Reaches altitude 10° 16:13:37 10° 177° (S) 2,727 6.6 -7.0°
Maximum altitude 16:19:49 70° 96° (E) 1,046 4.0 -7.9°
Drops below altitude 10° 16:26:07 10° 14° (NNE) 2,760 6.1 -8.8°
Sets 16:28:40 0° 12° (NNE) 3,714 6.7 -9.2°
